This demonstration page uses our WeatherBlox Daily Observations layout. Learn more.

38.89511, -77.03637

Hourly Observations for September 21, 2015

Temp ( °F °C ) Dew Point ( °F °C ) Humidity (%) Winds ( mph kmh ) Pressure ( in mb ) Visibility ( mi km ) Precip ( " mm )
12:52 am 00:52 Cloudy 69 20.6 48 8.9 47 47 NNE 9 15 30.08 1019 10 16.0934 0 0
1:52 am 01:52 Cloudy 67 19.4 47 8.3 49 49 NNE 13 20 30.08 1019 10 16.0934 0 0
2:52 am 02:52 Mostly Cloudy 66 18.9 47 8.3 50 50 NNE 12 19 30.07 1018 10 16.0934 0 0
3:52 am 03:52 Cloudy 65 18.3 49 9.4 56 56 NNE 10 17 30.07 1018 10 16.0934 0 0
4:52 am 04:52 Cloudy 65 18.3 49 9.4 56 56 NNE 10 17 30.08 1019 10 16.0934 0 0
5:52 am 05:52 Cloudy 64 17.8 49 9.4 58 58 NNE 9 15 30.09 1019 10 16.0934 0 0
6:52 am 06:52 Cloudy 64 17.8 50 10 60 60 NNE 10 17 30.11 1020 10 16.0934 0 0
7:52 am 07:52 Cloudy 64 17.8 51 10.6 63 63 NE 9 15 30.13 1020 9 14.48406 0 0
8:52 am 08:52 Cloudy 66 18.9 51 10.6 59 59 NNE 9 15 30.15 1021 9 14.48406 0 0.0254
9:17 am 09:17 Cloudy 66 19 52 11 60 60 NNE 12 19 30.18 1022 10 16.0934 0 0
9:52 am 09:52 Cloudy 66 18.9 52 11.1 61 61 NNE 13 20 30.17 1022 10 16.0934 0 0
10:44 am 10:44 Cloudy 66 19 54 12 64 64 NE 10 17 30.18 1022 10 16.0934 0 0
10:52 am 10:52 Cloudy 67 19.4 53 11.7 61 61 NE 9 15 30.18 1022 10 16.0934 0 0
11:52 am 11:52 Cloudy 69 20.6 54 12.2 59 59 NNE 8 13 30.18 1022 10 16.0934 0 0
12:22 pm 12:22 Cloudy 70 21 55 13 60 60 NE 7 11 30.18 1022 10 16.0934 0 0
12:52 pm 12:52 Cloudy 70 21.1 55 12.8 59 59 NE 13 20 30.16 1021 10 16.0934 0 0
1:49 pm 13:49 Cloudy 70 21 55 13 60 60 NE 12 19 30.15 1021 10 16.0934 0 0
1:52 pm 13:52 Cloudy 69 20.6 56 13.3 63 63 NE 14 22 30.15 1021 10 16.0934 0 0
2:05 pm 14:05 Cloudy with Light Rain 68 20 55 13 64 64 ENE 12 19 30.15 1021 10 16.0934 0 0.0254
2:37 pm 14:37 Cloudy with Light Rain 68 20 57 14 69 69 NNE 12 19 30.15 1021 10 16.0934 0 0.0254
2:52 pm 14:52 Cloudy 69 20.6 57 13.9 66 66 NNE 12 19 30.15 1021 8 12.87472 0 0.0254
3:42 pm 15:42 Cloudy 68 20 57 14 69 69 ENE 12 19 30.15 1021 10 16.0934 0 0
3:52 pm 15:52 Cloudy with Light Drizzle 69 20.6 57 13.9 66 66 NE 10 17 30.14 1021 6 9.65604 0 0.0254
4:17 pm 16:17 Cloudy 70 21 57 14 64 64 NE 12 19 30.15 1021 10 16.0934 0 0.0254
4:34 pm 16:34 Cloudy with Light Rain 68 20 57 14 69 69 ENE 10 17 30.15 1021 10 16.0934 0 0
4:52 pm 16:52 Cloudy with Light Rain 67 19.4 59 15 76 76 ENE 13 20 30.14 1021 10 16.0934 0.01 0.254
5:52 pm 17:52 Cloudy with Light Rain 65 18.3 60 15.6 84 84 NNE 12 19 30.16 1021 6 9.65604 0.03 0.762
6:52 pm 18:52 Cloudy with Light Rain 63 17.2 60 15.6 90 90 NNE 13 20 30.17 1022 8 12.87472 0.08 2.032
7:52 pm 19:52 Cloudy with Light Rain 63 17.2 60 15.6 90 90 N 9 15 30.17 1022 10 16.0934 0.03 0.762
8:52 pm 20:52 Cloudy with Light Rain 63 17.2 60 15.6 90 90 NNE 8 13 30.19 1022 10 16.0934 0.03 0.762
9:52 pm 21:52 Cloudy with Light Rain 63 17.2 60 15.6 90 90 N 8 13 30.19 1023 10 16.0934 0.01 0.254
10:52 pm 22:52 Cloudy with Light Rain 63 17.2 60 15.6 90 90 NNE 8 13 30.19 1023 10 16.0934 0.03 0.762
11:52 pm 23:52 Cloudy 64 17.8 60 15.6 87 87 NNE 10 17 30.2 1023 10 16.0934 0.01 0.254

Powered by AerisWeather